Location: Croydon
(51.3762°N, 0.0982°W)
Time: 12:54:42
(UTC+00:00)

Altair - Pass Details

Date: 18 November 2019
Orbit: 1502 x 1682 km, 47.2° (Epoch: 09 December)

Event Time Altitude Azimuth Distance (km) Brightness Sun altitude
Rises 10:37:14 0° 286° (WNW) 4,681 9.7 17.8°
Reaches altitude 10° 10:41:23 10° 270° (W) 3,720 9.4 18.0°
Maximum altitude 10:47:19 19° 230° (SW) 3,104 9.6 18.3°
Drops below altitude 10° 10:53:22 10° 190° (S) 3,798 11.1 18.5°
Sets 10:57:43 0° 173° (S) 4,813 11.8 18.6°
